Content
SEND FEEDBACK

Daily
Averages
Monthly
Summary
Malaysia

KOTA KINABALU, MALAYSIA


Home > Asia > Malaysia
Elevation: 10 feet     Latitude: 05 55N     Longitude: 116 03E

WEATHER
 
SELECT A DAY
Number of Records: 277,727;   Date Range: 8/9/96 - 10/19/14
 
SHARE

PRINT THIS DATA

[ ← Previous Day ]
WEATHER ALMANAC - JULY 21, 2013
[ Next Day → ]
[ °C ]   °F
Weather ElementAverageHighLow
Temperature82.6 °F93.2 °F (1:30 pm)75 °F (5:00 am)
Dewpoint72.4 °F77 °F (4:00 pm)68 °F (1:00 pm)
Humidity71.5 %94 % (2:00 am)40 % (2:00 pm)
Barometer29.75 in29.86 in (12:30 am)29.68 in (2:00 pm)
Wind Speed6.3 mph17.3 mph (2:00 am)
Weather ElementAverage
Visibility6.8 mi
Wind DirectionSSE (173.5 °)

Weather ElementTotal
Precipitation---
Cooling Degree Days19.1 (Base 65)
Growing Degree Days34.1 (Base 50)
Averaged from 55 records on July 21, 2013
WEATHER CONDITIONS BREAKOUT
WIND DIRECTION BREAKOUT
WEATHER BY HOUR - JULY 21, 2013
[ °C ]   °F
Local TimeTemperatureDewpointHumidityBarometerVisibilityWind DirectionWind SpeedGust SpeedPrecipitationEventsConditions
12:30 AM78.8 °F75.2 °F89 %29.86 in5.6 miWSW (240°)9.2 mphRainLight Rain
1:00 AM80.6 °F75.2 °F84 %29.83 in6.2 miWSW (250°)9.2 mphRainLight Rain
1:30 AM77.0 °F73.4 °F89 %29.83 in6.2 miSouth (180°)9.2 mphRainLight Rain
2:00 AM76.0 °F73.0 °F86 %29.83 in7.0 miSouth (190°)17.3 mphRainLight Rain
2:00 AM75.2 °F73.4 °F94 %29.80 in6.2 miSouth (190°)17.3 mphRainLight Rain
2:30 AM75.2 °F71.6 °F89 %29.80 in6.2 miSouth (180°)11.5 mphRainLight Rain
3:00 AM75.2 °F71.6 °F89 %29.80 in6.2 miEast (100°)5.8 mphOvercast
3:30 AM75.2 °F69.8 °F83 %29.77 in6.2 miESE (110°)6.9 mphOvercast
4:00 AM75.2 °F69.8 °F83 %29.77 in6.2 miESE (110°)5.8 mphOvercast
4:30 AM75.2 °F69.8 °F83 %29.77 in6.2 miEast (100°)5.8 mphOvercast
5:00 AM75.0 °F70.0 °F79 %29.78 in11.0 miEast (100°)8.1 mphPartly Cloudy
5:00 AM75.2 °F69.8 °F83 %29.77 in6.2 miEast (100°)8.1 mphMostly Cloudy
5:30 AM75.2 °F69.8 °F83 %29.74 in6.2 miEast (100°)8.1 mphMostly Cloudy
6:00 AM75.2 °F69.8 °F83 %29.74 in6.2 miESE (110°)6.9 mphMostly Cloudy
6:30 AM75.2 °F69.8 °F83 %29.74 in6.2 miSE (130°)6.9 mphMostly Cloudy
7:00 AM75.2 °F69.8 °F83 %29.74 in6.2 miESE (120°)4.6 mphMostly Cloudy
7:30 AM77.0 °F69.8 °F78 %29.74 in6.2 miESE (110°)5.8 mphMostly Cloudy
8:00 AM79.0 °F71.0 °F69 %29.77 in11.0 miESE (110°)6.9 mphHaze
8:00 AM78.8 °F71.6 °F78 %29.74 in6.2 miESE (110°)6.9 mphMostly Cloudy
8:30 AM80.6 °F71.6 °F74 %29.77 in6.2 miESE (110°)6.9 mphMostly Cloudy
9:00 AM82.4 °F71.6 °F70 %29.77 in6.2 miEast (100°)5.8 mphMostly Cloudy
9:30 AM84.2 °F73.4 °F70 %29.77 in6.2 miESE (110°)3.5 mphMostly Cloudy
10:00 AM86.0 °F73.4 °F66 %29.77 in6.2 miSE (140°)2.3 mphMostly Cloudy
10:30 AM86.0 °F71.6 °F62 %29.77 in6.2 miSW (230°)3.5 mphMostly Cloudy
11:00 AM87.0 °F73.0 °F55 %29.77 in11.0 miSW (230°)4.6 mphHaze
11:00 AM86.0 °F73.4 °F66 %29.77 in6.2 miSW (230°)4.6 mphMostly Cloudy
11:30 AM87.8 °F73.4 °F62 %29.74 in6.2 miWSW (240°)3.5 mphMostly Cloudy
12:00 PM89.6 °F73.4 °F59 %29.74 in6.2 miWSW (250°)3.5 mphMostly Cloudy
12:30 PM89.6 °F73.4 °F59 %29.74 in6.2 miWSW (240°)3.5 mphMostly Cloudy
1:00 PM91.4 °F68.0 °F46 %29.71 in6.2 miSouth (180°)3.5 mphMostly Cloudy
1:30 PM93.2 °F71.6 °F49 %29.71 in6.2 miWest (280°)3.5 mphMostly Cloudy
2:00 PM91.0 °F70.0 °F40 %29.70 in11.0 miWSW (240°)4.6 mphHaze
2:00 PM91.4 °F69.8 °F49 %29.68 in6.2 miWSW (240°)4.6 mphMostly Cloudy
2:30 PM93.2 °F71.6 °F49 %29.68 in6.2 miWest (260°)3.5 mphMostly Cloudy
3:00 PM93.2 °F75.2 °F56 %29.68 in6.2 miWest (260°)3.5 mphMostly Cloudy
3:30 PM93.2 °F75.2 °F56 %29.68 in6.2 miWest (270°)3.5 mphMostly Cloudy
4:00 PM91.4 °F77.0 °F63 %29.68 in6.2 miWest (270°)3.5 mphMostly Cloudy
4:30 PM91.4 °F75.2 °F59 %29.68 in6.2 miWest (270°)5.8 mphMostly Cloudy
5:00 PM87.0 °F76.0 °F63 %29.71 in12.0 miWest (270°)9.2 mphHaze
5:00 PM87.8 °F77.0 °F70 %29.71 in6.2 miWest (270°)9.2 mphMostly Cloudy
5:30 PM86.0 °F77.0 °F74 %29.71 in6.2 miWest (260°)9.2 mphMostly Cloudy
6:00 PM84.2 °F77.0 °F79 %29.71 in6.2 miWSW (240°)8.1 mphMostly Cloudy
6:30 PM84.2 °F75.2 °F74 %29.74 in6.2 miWSW (240°)9.2 mphMostly Cloudy
7:00 PM84.2 °F73.4 °F70 %29.74 in6.2 miSW (220°)10.4 mphMostly Cloudy
7:30 PM82.4 °F75.2 °F79 %29.74 in6.2 miSE (140°)4.6 mphMostly Cloudy
8:00 PM82.0 °F74.0 °F70 %29.76 in10.0 miESE (120°)4.6 mphHaze
8:00 PM82.4 °F73.4 °F74 %29.74 in6.2 miESE (120°)4.6 mphMostly Cloudy
8:30 PM82.4 °F73.4 °F74 %29.77 in6.2 miESE (120°)3.5 mphMostly Cloudy
9:00 PM80.6 °F73.4 °F79 %29.77 in6.2 miESE (110°)4.6 mphMostly Cloudy
9:30 PM80.6 °F71.6 °F74 %29.77 in6.2 miESE (110°)4.6 mphMostly Cloudy
10:00 PM80.6 °F69.8 °F70 %29.77 in6.2 miEast (100°)6.9 mphMostly Cloudy
10:30 PM80.6 °F69.8 °F70 %29.77 in6.2 miESE (110°)5.8 mphMostly Cloudy
11:00 PM80.0 °F70.0 °F64 %29.79 in10.0 miEast (100°)4.6 mphHaze
11:00 PM78.8 °F69.8 °F74 %29.77 in6.2 miEast (100°)4.6 mphMostly Cloudy
11:30 PM78.8 °F69.8 °F74 %29.77 in6.2 miESE (120°)5.8 mphMostly Cloudy
Hourly data recorded from WBKK, located miles away from Kota Kinabalu, Malaysia







STORIES FROM OUR PARTNERS